KUIPER-00259

Last updated on Sun Mar 15 2026 00:02:06 GMT+0000 (Coordinated Universal Time)

1 67786U 26030Y 26073.59008494 .00028253 00000+0 81878-3 0 9996 2 67786 51.8818 195.6612 0008761 65.1113 295.0783 15.35302461 5847
UTC large
Height (km)
Speed (km/s)
/
Latitude / Longitude
Inclination (degrees)
Orbital Period (minutes)
Azimuth
Elevation
Range (km)
Doppler Factor

Next 0 passes for location: London (51.5072 / 0.1276)

Sorry there are no passes over London.